[[{"header":{"parameterUnit":"m.s-1","parameterCategory":1,"la1":30.2991,"la2":30.254,"lo1":-89.0895,"lo2":-89.0444,"dy":0.0017,"dx":0.0017,"nx":28,"ny":28,"refTime":"2024-05-31T03:00:00:Z","depth":0,"parameterNumber":2,"parameterNumberName":"U-component_of_WINDS"},"data":[0,0,0,0,0,0,0,0,0,0,0,0,0,0,0,0,0,0,0,0,0,0,0,0,0,0,0,0,0,0,0,0,0,0,0,0,0,0,0,0,0,0,0,0,0,0,0,0,0,0,0,0,0,0,0,0,0,0,-4.3482,-4.3481,0,-4.3423,-4.3422,-4.3421,-4.3297,-4.3294,-4.3292,-4.3289,-4.3232,-4.3233,-4.3234,0,0,0,0,0,0,0,0,0,0,0,0,0,-4.3493,-4.3493,-4.3482,-4.3481,-4.3481,-4.3423,-4.3422,-4.3421,-4.3297,-4.3294,-4.3291,-4.3288,-4.3232,-4.3233,-4.3234,0,0,0,0,0,0,0,0,0,0,0,0,0,-4.3466,-4.3493,-4.3482,-4.3412,-4.3405,-4.3423,-4.3422,-4.3421,-4.3298,-4.3294,-4.329,-4.3287,-4.3231,-4.3233,-4.3234,-4.3317,0,0,-4.3238,-4.3238,0,0,0,0,0,0,0,0,-4.3468,-4.3466,-4.3423,-4.3417,-4.3409,-4.3363,-4.3404,-4.3386,-4.3299,-4.3339,-4.3289,-4.3285,-4.3279,-4.3276,-4.3273,-4.3314,-4.3311,-4.3238,-4.3238,-4.3239,-4.3239,0,0,0,0,0,0,0,-4.347,-4.3468,-4.3459,-4.3423,-4.3414,-4.3384,-4.3377,-4.34,-4.3331,-4.3335,-4.3326,-4.332,-4.3274,-4.3272,-4.3271,-4.3311,-4.3238,-4.3239,-4.3239,-4.324,-4.3416,-4.342,0,0,0,0,0,0,-4.3481,-4.347,-4.346,-4.3457,-4.343,-4.3387,-4.3378,-4.3382,-4.333,-4.3319,-4.3323,-4.3315,-4.3272,-4.327,-4.3269,-4.3361,-4.3239,-4.324,-4.3241,-4.3412,-4.3417,-4.3421,0,0,0,0,0,0,-4.3482,-4.3482,-4.3463,-4.3461,-4.3456,-4.3391,-4.3396,-4.3383,-4.338,-4.3321,-4.3309,-4.3334,-4.3269,-4.3267,-4.3305,-4.3357,-4.3241,-4.3242,-4.3407,-4.3413,-4.3419,-4.3547,0,0,0,0,0,0,-4.3483,-4.3483,-4.3512,-4.3463,-4.3457,-4.35,-4.3399,-4.3384,-4.3382,-4.337,-4.3328,-4.3317,-4.3266,-4.3304,-4.3306,-4.3357,-4.3243,-4.3402,-4.341,-4.3417,-4.3538,-4.3557,-4.3573,0,0,0,0,0,-4.3484,-4.3552,-4.3515,-4.3514,-4.3493,-4.3503,-4.35,-4.3438,-4.3387,-4.3417,-4.3379,-4.3318,-4.3352,-4.3309,-4.3311,-4.3362,-4.3399,-4.3408,-4.3416,-4.353,-4.3553,-4.3572,0,0,0,0,0,0,-4.361,-4.3544,-4.3502,-4.3556,-4.3536,-4.3482,-4.3517,-4.3465,-4.346,-4.3449,-4.3374,-4.3366,-4.3414,-4.3392,-4.3346,-4.3439,-4.3365,-4.3375,-4.3451,-4.3473,-4.349,-4.3493,-4.3244,0,0,0,0,0,-4.3645,-4.3658,-4.3599,-4.3652,-4.3644,-4.3583,-4.3586,-4.354,-4.3517,-4.3508,-4.3473,-4.3454,-4.346,-4.3465,-4.3468,-4.3535,-4.3524,-4.3571,-4.3589,-4.3603,-4.3612,-4.3645,-4.3665,-4.345,-4.345,-4.345,0,0,-4.3715,-4.3681,-4.3693,-4.3677,-4.3656,-4.3672,-4.3577,-4.3598,-4.3609,-4.3512,-4.3545,-4.3519,-4.3493,-4.3546,-4.3568,-4.3529,-4.3669,-4.3615,-4.3627,-4.3627,-4.3656,-4.3677,-4.3695,-4.3456,-4.3455,-4.3454,0,0,-4.3851,-4.3827,-4.3868,-4.3849,-4.3819,-4.3778,-4.3788,-4.3742,-4.3721,-4.3753,-4.368,-4.3694,-4.3706,-4.3689,-4.3683,-4.3815,-4.3759,-4.3818,-4.3909,-4.3942,-4.3959,-4.3973,-4.4019,-4.4037,-4.3828,-4.3828,-4.3828,0,-4.3943,-4.3963,-4.3896,-4.3921,-4.3916,-4.3829,-4.387,-4.3855,-4.3828,-4.3827,-4.3785,-4.3797,-4.3774,-4.3821,-4.3854,-4.3852,-4.3861,-4.3822,-4.3962,-4.3976,-4.3988,-4.4031,-4.4049,-4.3835,-4.3834,-4.3834,-4.3833,0,-4.4077,-4.4092,-4.4129,-4.4103,-4.4103,-4.4136,-4.4076,-4.4084,-4.4039,-4.4003,-4.4037,-4.4006,-4.4,-4.4009,-4.3966,-4.4051,-4.4027,-4.3975,-4.3898,-4.4017,-4.4056,-4.4072,-4.3846,-4.3843,-4.3841,-4.3839,0,0,-4.4289,-4.4226,-4.4241,-4.4228,-4.4189,-4.42,-4.423,-4.4223,-4.4231,-4.4216,-4.4239,-4.4252,-4.4203,-4.4196,-4.4151,-4.418,-4.4285,-4.4123,-4.4121,-4.4153,-4.4376,-4.4414,-4.4434,-4.4249,-4.4252,-4.4254,-4.4377,0,-4.4415,-4.446,-4.4402,-4.4461,-4.4474,-4.4392,-4.4419,-4.4398,-4.4366,-4.4373,-4.4338,-4.4348,-4.4283,-4.4278,-4.4303,-4.4267,-4.4329,-4.4258,-4.427,-4.4271,-4.4276,-4.4455,-4.4496,-4.4613,-4.4392,-4.4395,-4.4397,0,-4.4567,-4.4558,-4.4618,-4.4575,-4.4578,-4.4603,-4.4591,-4.46,-4.4575,-4.455,-4.4543,-4.4489,-4.4516,-4.4444,-4.4481,-4.4434,-4.4436,-4.4419,-4.4422,-4.4419,-4.434,-4.4455,-4.465,-4.4667,-4.442,-4.4418,-4.4417,0,-4.4714,-4.4717,-4.4753,-4.4745,-4.4696,-4.4715,-4.4696,-4.4667,-4.4667,-4.4659,-4.4658,-4.4653,-4.4651,-4.4649,-4.4595,-4.4548,-4.4639,-4.4562,-4.4618,-4.462,-4.4639,-4.4638,-4.4835,-4.4644,-4.4644,-4.4644,-4.4643,0,-4.4859,-4.4899,-4.4818,-4.484,-4.4883,-4.4816,-4.4861,-4.4833,-4.4809,-4.4825,-4.4755,-4.4772,-4.4701,-4.4711,-4.467,-4.4706,-4.4706,-4.4686,-4.4674,-4.4691,-4.4693,-4.469,-4.468,-4.4648,-4.4647,-4.4646,-4.4646,0,-4.5029,-4.4977,-4.501,-4.4961,-4.495,-4.4984,-4.4942,-4.4961,-4.4925,-4.4946,-4.4948,-4.4891,-4.4899,-4.4846,-4.4844,-4.4816,-4.4872,-4.4847,-4.488,-4.4871,-4.4929,-4.4924,-4.5129,-4.5152,-4.4949,-4.4951,-4.4953,0,-4.5124,-4.5153,-4.5107,-4.5112,-4.5096,-4.5105,-4.5104,-4.5041,-4.5043,-4.5018,-4.504,-4.5042,-4.504,-4.5056,-4.5016,-4.5014,-4.4988,-4.506,-4.4987,-4.5003,-4.4987,-4.4985,-4.4987,-4.5074,-4.5077,-4.5079,-4.5081,0,-4.5298,-4.5271,-4.5272,-4.5264,-4.5265,-4.5256,-4.5243,-4.5251,-4.5183,-4.5189,-4.5195,-4.5194,-4.5192,-4.5194,-4.5185,-4.5166,-4.5112,-4.5104,-4.5117,-4.5133,-4.515,-4.514,-4.4919,-4.5099,-4.5097,-4.5096,-4.5095,-4.5094,-4.5432,-4.5454,-4.5424,-4.5428,-4.5411,-4.5401,-4.5416,-4.5381,-4.5385,-4.5377,-4.5341,-4.5354,-4.5329,-4.5311,-4.5297,-4.5307,-4.5273,-4.5291,-4.5296,-4.5301,-4.531,-4.515,-4.5306,-4.5305,-4.5304,-4.5304,-4.5303,0,-4.5601,-4.5579,-4.5583,-4.5566,-4.5569,-4.5518,-4.5501,-4.5507,-4.5519,-4.55,-4.5499,-4.5507,-4.5509,-4.547,-4.5467,-4.5483,-4.5458,-4.5484,-4.5481,-4.5478,-4.5342,-4.5331,-4.5504,-4.5504,-4.5504,-4.5504,-4.5504,-4.5504,-4.569,-4.5722,-4.5692,-4.5717,-4.5694,-4.5705,-4.57,-4.569,-4.5674,-4.5686,-4.5687,-4.5661,-4.5634,-4.5629,-4.5629,-4.5617,-4.5619,-4.5653,-4.5633,-4.5507,-4.5487,-4.5469,-4.5457,-4.5655,-4.5655,-4.5767,-4.5768,-4.5769]},{"header":{"parameterUnit":"m.s-1","parameterCategory":1,"la1":30.2991,"la2":30.254,"lo1":-89.0895,"lo2":-89.0444,"dy":0.0017,"dx":0.0017,"nx":28,"ny":28,"refTime":"2024-05-31T03:00:00:Z","depth":0,"parameterNumber":3,"parameterNumberName":"V-component_of_WINDS"},"data":[0,0,0,0,0,0,0,0,0,0,0,0,0,0,0,0,0,0,0,0,0,0,0,0,0,0,0,0,0,0,0,0,0,0,0,0,0,0,0,0,0,0,0,0,0,0,0,0,0,0,0,0,0,0,0,0,0,0,3.7974,3.7974,0,3.794,3.794,3.7939,3.7894,3.7893,3.7892,3.7892,3.7855,3.7854,3.7854,0,0,0,0,0,0,0,0,0,0,0,0,0,3.7998,3.7998,3.7974,3.7974,3.7973,3.794,3.794,3.7939,3.7894,3.7893,3.7892,3.7891,3.7855,3.7854,3.7854,0,0,0,0,0,0,0,0,0,0,0,0,0,3.7978,3.7998,3.7974,3.7947,3.7944,3.794,3.794,3.7939,3.7894,3.7893,3.7892,3.7891,3.7855,3.7854,3.7854,3.7874,0,0,3.7853,3.7853,0,0,0,0,0,0,0,0,3.798,3.7978,3.7951,3.7949,3.7945,3.792,3.7935,3.7917,3.7894,3.7913,3.7892,3.789,3.7877,3.7875,3.7871,3.7872,3.7871,3.7853,3.7852,3.7852,3.7852,0,0,0,0,0,0,0,3.7981,3.7979,3.7961,3.7951,3.7947,3.7936,3.7932,3.7931,3.7902,3.7911,3.7908,3.7905,3.7875,3.7871,3.787,3.787,3.7853,3.7852,3.7852,3.7852,3.7886,3.7888,0,0,0,0,0,0,3.7987,3.798,3.7962,3.796,3.796,3.7936,3.7932,3.7929,3.7902,3.7896,3.7906,3.7903,3.7873,3.787,3.7868,3.7889,3.7852,3.7852,3.7852,3.7885,3.7887,3.7888,0,0,0,0,0,0,3.7987,3.7986,3.7963,3.7969,3.7965,3.7937,3.7935,3.7929,3.7925,3.7897,3.7892,3.7907,3.7872,3.7869,3.7873,3.7887,3.7852,3.7851,3.7884,3.7886,3.7887,3.7932,0,0,0,0,0,0,3.7988,3.7986,3.7993,3.797,3.7965,3.7969,3.7936,3.7929,3.7925,3.7921,3.7897,3.7892,3.7871,3.7874,3.7873,3.7886,3.7851,3.7882,3.7885,3.7887,3.7929,3.7935,3.794,0,0,0,0,0,3.7989,3.8007,3.7994,3.7992,3.7974,3.797,3.7967,3.7943,3.7926,3.7933,3.7916,3.7893,3.7887,3.7875,3.7873,3.7887,3.7881,3.7884,3.7887,3.7927,3.7934,3.794,0,0,0,0,0,0,3.8032,3.8003,3.7989,3.7999,3.7987,3.7962,3.797,3.7951,3.7943,3.7939,3.7909,3.7904,3.7912,3.79,3.7887,3.7905,3.7881,3.7883,3.7912,3.7918,3.7924,3.7926,3.7851,0,0,0,0,0,3.8043,3.8042,3.8017,3.8029,3.8024,3.7998,3.7995,3.7978,3.7964,3.7959,3.7941,3.7928,3.7923,3.7921,3.7915,3.7928,3.7922,3.7937,3.7942,3.7947,3.7949,3.7955,3.7961,3.7897,3.7897,3.7897,0,0,3.8064,3.8049,3.805,3.8037,3.8026,3.8025,3.7994,3.7995,3.7994,3.7959,3.7961,3.7949,3.7932,3.7941,3.7944,3.7931,3.7966,3.795,3.7954,3.7953,3.7958,3.7964,3.7969,3.7898,3.7898,3.7898,0,0,3.8103,3.8092,3.81,3.809,3.8075,3.8058,3.806,3.8038,3.8029,3.8031,3.8005,3.8004,3.7996,3.7985,3.7979,3.8017,3.7995,3.8016,3.8044,3.805,3.8055,3.8059,3.8072,3.8077,3.8018,3.8018,3.8018,0,3.8132,3.8131,3.8107,3.811,3.8104,3.8074,3.8082,3.8073,3.8056,3.8053,3.8039,3.803,3.8016,3.8022,3.8032,3.8028,3.8029,3.8017,3.8056,3.806,3.8064,3.8075,3.808,3.8021,3.802,3.802,3.802,0,3.8167,3.8167,3.8175,3.816,3.8156,3.8162,3.8138,3.8137,3.8121,3.8106,3.8109,3.8093,3.8083,3.8084,3.8067,3.8088,3.808,3.8062,3.8037,3.8073,3.8083,3.8087,3.8024,3.8023,3.8022,3.8022,0,0,3.8229,3.8202,3.8205,3.8198,3.818,3.8179,3.8184,3.8175,3.8174,3.8164,3.8167,3.8162,3.8146,3.8139,3.8121,3.8127,3.8157,3.8108,3.8107,3.8116,3.8178,3.819,3.8195,3.8144,3.8145,3.8145,3.8178,0,3.8263,3.8269,3.8248,3.8259,3.8259,3.8231,3.8235,3.8224,3.821,3.8208,3.8192,3.8189,3.8169,3.8164,3.8169,3.8152,3.8168,3.815,3.8144,3.8144,3.8147,3.8201,3.8213,3.8245,3.8182,3.8183,3.8184,0,3.8303,3.8296,3.8307,3.8289,3.8288,3.8291,3.8282,3.8281,3.8268,3.8257,3.8251,3.8231,3.8234,3.8212,3.8215,3.8203,3.82,3.8192,3.8193,3.8189,3.8165,3.8197,3.8255,3.8259,3.819,3.8189,3.8189,0,3.8345,3.8339,3.8345,3.834,3.8319,3.8322,3.8314,3.83,3.8296,3.8289,3.8286,3.8279,3.8274,3.8269,3.8247,3.8234,3.8253,3.8229,3.8243,3.8244,3.8246,3.8246,3.8303,3.8248,3.8248,3.8248,3.8248,0,3.8384,3.8392,3.8364,3.8367,3.8375,3.8352,3.836,3.8349,3.8337,3.8338,3.8314,3.8315,3.8288,3.8285,3.8269,3.8274,3.8272,3.8263,3.8259,3.8264,3.8265,3.826,3.8257,3.8249,3.8249,3.8249,3.8248,0,3.8432,3.8414,3.8418,3.8399,3.8394,3.84,3.8383,3.8386,3.8372,3.8373,3.8372,3.835,3.8346,3.8325,3.8317,3.8306,3.8316,3.8307,3.832,3.8316,3.8331,3.833,3.8385,3.8391,3.8334,3.8335,3.8335,0,3.8457,3.8462,3.8444,3.8443,3.8436,3.8434,3.8431,3.8409,3.8407,3.8393,3.8397,3.8392,3.8386,3.8382,3.8365,3.8358,3.8349,3.8369,3.8347,3.8353,3.8347,3.8346,3.8346,3.8372,3.8373,3.8374,3.8374,0,3.8503,3.8494,3.849,3.8484,3.8481,3.8475,3.8467,3.8468,3.8444,3.8442,3.8439,3.8435,3.8427,3.8422,3.8413,3.8403,3.8384,3.8382,3.8384,3.8389,3.8396,3.8391,3.833,3.838,3.8379,3.8379,3.8378,3.8378,3.8539,3.8542,3.853,3.8527,3.852,3.8513,3.8515,3.8502,3.8499,3.8491,3.8479,3.8477,3.8465,3.8451,3.8443,3.8441,3.843,3.8435,3.8435,3.8436,3.8439,3.8398,3.844,3.844,3.8439,3.8439,3.8439,0,3.8582,3.8574,3.8572,3.8562,3.856,3.8545,3.8536,3.8535,3.8534,3.8524,3.852,3.8516,3.8512,3.8495,3.8489,3.8491,3.8482,3.849,3.8488,3.8486,3.8449,3.8447,3.8497,3.8497,3.8497,3.8497,3.8497,3.8497,3.8605,3.861,3.86,3.8601,3.8592,3.8591,3.8587,3.8581,3.8574,3.8571,3.8568,3.8557,3.8545,3.8538,3.8533,3.8528,3.8526,3.8537,3.8529,3.8494,3.8489,3.8483,3.8481,3.8537,3.8537,3.8565,3.8566,3.8566]}]]